Location: Bakov nad Jizerou
(50.4784°N, 14.9394°E)
Time: 02:08:33
(UTC+00:00)

Cosmos 1727 Rocket - Visible Passes

Search period start: 24 October 2021 00:00
Search period end: 03 November 2021 00:00
Orbit: 961 x 997 km, 82.9° (Epoch: 23 October)

Date Brightness Start Highest point End Pass type
(mag) Time Alt. Az. Time Alt. Az. Time Alt. Az.
24 Oct 6.5 03:53:46 10° SE 03:58:34 24° E 04:03:22 10° NNE visible
24 Oct 4.5 16:28:18 10° NNW 16:34:27 67° W 16:40:33 10° S visible
24 Oct 7.2 18:16:23 10° NW 18:18:40 12° WNW 18:20:58 10° W visible
25 Oct 5.6 04:18:50 10° SSE 04:24:36 39° E 04:30:20 10° NNE visible
25 Oct 5.5 16:54:56 10° NNW 17:00:39 39° W 17:06:18 10° SSW visible
26 Oct 7.2 03:04:14 10° E 03:06:34 12° ENE 03:08:53 10° NE visible
26 Oct 4.6 04:44:33 10° S 04:50:47 66° E 04:56:59 10° NNE visible
26 Oct 6.5 17:21:55 10° NNW 17:26:39 24° W 17:31:22 10° SW visible
27 Oct 6.5 03:27:48 10° SE 03:32:22 21° E 03:36:55 10° NNE visible
27 Oct 7.0 17:49:38 10° NW 17:52:29 14° WNW 17:55:19 10° WSW visible
28 Oct 5.7 03:52:44 10° SSE 03:58:21 36° E 04:03:58 10° NNE visible
28 Oct 5.4 16:28:35 10° NNW 16:34:23 43° W 16:40:08 10° SSW visible
29 Oct 7.2 02:38:52 10° E 02:40:23 11° ENE 02:41:54 10° ENE visible
29 Oct 4.7 04:18:21 10° S 04:24:30 60° E 04:30:39 10° NNE visible
29 Oct 6.3 16:55:30 10° NNW 17:00:26 26° W 17:05:21 10° SW visible
30 Oct 6.6 03:01:53 10° ESE 03:06:10 20° E 03:10:26 10° NE visible
30 Oct 4.0 04:44:32 10° S 04:50:50 83° W 04:57:08 10° N visible
30 Oct 6.9 17:23:01 10° NW 17:26:18 15° WNW 17:29:34 10° WSW visible
31 Oct 5.8 03:26:39 10° SSE 03:32:07 33° E 03:37:34 10° NNE visible
31 Oct 4.2 05:11:16 10° SSW 05:17:21 50° WNW 05:23:26 10° N visible
31 Oct 5.2 16:02:14 10° NNW 16:08:07 47° W 16:13:58 10° SSW visible
01 Nov 4.8 03:52:09 10° SSE 03:58:14 55° E 04:04:19 10° NNE visible
01 Nov 6.2 16:29:04 10° NNW 16:34:12 28° W 16:39:17 10° SW visible
02 Nov 6.6 02:35:59 10° ESE 02:39:58 18° ENE 02:43:55 10° NE visible
02 Nov 4.0 04:18:15 10° S 04:24:33 90° W 04:30:49 10° N visible
02 Nov 6.8 16:56:26 10° NW 17:00:05 17° WNW 17:03:44 10° WSW visible
